Location: Colonia Mina de C?rbuni
(46.1667°N, 22.7167°E)
Time: 16:28:58
(UTC+00:00)

Vanguard 1 Rocket - Pass Details

Date: 13 April 2024
Orbit: 650 x 4220 km, 34.3° (Epoch: 22 May)

Event Time Altitude Azimuth Distance (km) Brightness Sun altitude
Rises 17:41:52 0° 210° (SSW) 3,386 10.5 -5.4°
Reaches altitude 10° 17:44:31 10° 194° (SSW) 2,722 9.8 -5.8°
Maximum altitude 17:49:26 22° 144° (SE) 2,505 9.2 -6.6°
Drops below altitude 10° 17:56:45 10° 99° (E) 4,253 10.2 -7.8°
Enters shadow 17:58:36 - 94° (E) 4,813 10.5 -8.1°
